DW0314 Weather Reports


time (UTC)temp
C
wind
direction
speed
KPH
gust
KPH
rain 1hr
cm
rain 24hr
cm
rain mn
cm
humidity
%
barometer
mb
20260906183052 34 153 0.0 8.0 0.00 0.00 0.00 55 1013.5
20260906181548 34 187 6.4 12.9 0.00 0.00 0.00 55 1013.7
20260906180104 34 109 1.6 11.3 0.00 0.00 0.00 56 1014.0
20260906174553 33 201 0.0 8.0 0.00 0.00 0.00 55 1014.4
20260906173039 33 204 1.6 9.7 0.00 0.00 0.00 58 1014.6
20260906171535 32 145 3.2 8.0 0.00 0.00 0.00 61 1014.8
20260906170033 32 150 1.6 11.3 0.00 0.00 0.00 60 1014.9
20260906164531 31 136 1.6 6.4 0.00 0.00 0.00 62 1015.1
20260906163029 31 172 3.2 6.4 0.00 0.00 0.00 65 1015.3
20260906161527 31 130 0.0 4.8 0.00 0.00 0.00 64 1015.1
20260906160028 31 132 0.0 3.2 0.00 0.00 0.00 63 1014.9
20260906154529 31 298 0.0 0.0 0.00 0.00 0.00 65 1014.8
20260906153031 31 149 0.0 3.2 0.00 0.00 0.00 67 1014.7
20260906151514 30 130 0.0 6.4 0.00 0.00 0.00 65 1014.7
20260906150020 30 124 3.2 11.3 0.00 0.00 0.00 65 1014.6
20260906144510 30 144 3.2 8.0 0.00 0.00 0.00 67 1014.6
20260906143012 29 92 1.6 8.0 0.00 0.00 0.00 69 1014.6
20260906141503 28 145 3.2 4.8 0.00 0.00 0.00 70 1014.8
20260906140058 27 207 0.0 1.6 0.00 0.00 0.00 77 1014.6
20260906134612 26 37 0.0 0.0 0.00 0.00 0.00 81 1014.5
20260906133055 25 37 0.0 0.0 0.00 0.00 0.00 83 1014.5
20260906131549 24 37 0.0 0.0 0.00 0.00 0.00 85 1014.7
20260906130048 23 30 0.0 0.0 0.00 0.00 0.00 87 1014.6
20260906124549 23 29 0.0 0.0 0.00 0.00 0.00 87 1014.3
20260906123053 23 35 0.0 0.0 0.00 0.00 0.00 86 1014.1
20260906121543 23 35 0.0 0.0 0.00 0.00 0.00 86 1013.9
20260906120036 23 35 0.0 0.0 0.00 0.00 0.00 86 1013.5
20260906114535 22 34 0.0 0.0 0.00 0.00 0.00 86 1013.4
20260906113035 22 34 0.0 0.0 0.00 0.00 0.00 86 1013.3
20260906111533 22 34 0.0 0.0 0.00 0.00 0.00 86 1013.3
20260906110032 23 35 0.0 0.0 0.00 0.00 0.00 86 1013.3
20260906104532 23 36 0.0 1.6 0.00 0.00 0.00 86 1013.3
20260906103030 23 35 0.0 1.6 0.00 0.00 0.00 85 1013.3
20260906101530 23 36 0.0 1.6 0.00 0.00 0.00 83 1013.2
20260906100030 23 25 0.0 3.2 0.00 0.00 0.00 83 1013.2
20260906094524 23 26 0.0 0.0 0.00 0.00 0.00 82 1013.3
20260906093035 24 16 0.0 0.0 0.00 0.00 0.00 81 1013.3
20260906091519 25 16 0.0 0.0 0.00 0.00 0.00 79 1013.3
20260906090036 25 116 0.0 0.0 0.00 0.00 0.00 77 1013.1
20260906084517 25 86 0.0 0.0 0.00 0.00 0.00 77 1013.1
20260906083017 25 101 0.0 0.0 0.00 0.00 0.00 78 1012.9
20260906081517 25 108 0.0 0.0 0.00 0.00 0.00 78 1012.9
20260906080014 25 108 0.0 0.0 0.00 0.00 0.00 79 1012.9
20260906074514 25 108 0.0 3.2 0.00 0.00 0.00 78 1012.7
20260906073013 25 108 0.0 0.0 0.00 0.00 0.00 79 1012.7
20260906071511 25 53 0.0 0.0 0.00 0.00 0.00 79 1012.8
20260906070010 26 53 0.0 0.0 0.00 0.00 0.00 77 1012.9
20260906064509 26 132 0.0 1.6 0.00 0.00 0.00 77 1012.9
20260906063008 26 114 0.0 0.0 0.00 0.00 0.00 77 1013.0
20260906061506 26 86 0.0 0.0 0.00 0.00 0.00 77 1013.0
20260906060005 26 65 0.0 3.2 0.00 0.00 0.00 78 1013.0
20260906054505 26 83 0.0 3.2 0.00 0.00 0.00 78 1012.8
20260906053003 25 40 0.0 4.8 0.00 0.00 0.00 79 1012.9
20260906051606 25 57 0.0 4.8 0.00 0.00 0.00 79 1013.0
20260906050107 25 52 0.0 0.0 0.00 0.00 0.00 79 1013.0
20260906044557 26 52 0.0 0.0 0.00 0.00 0.00 79 1012.9
20260906043103 26 53 0.0 0.0 0.00 0.00 0.00 78 1012.8
20260906041603 26 43 0.0 0.0 0.00 0.00 0.00 78 1012.7
20260906040056 26 79 0.0 0.0 0.00 0.00 0.00 78 1012.7
20260906034617 26 2 0.0 0.0 0.00 0.00 0.00 77 1012.6
20260906033055 26 18 0.0 0.0 0.00 0.00 0.00 77 1012.5
20260906031554 26 64 0.0 1.6 0.00 0.00 0.00 76 1012.3
20260906030054 27 2 0.0 0.0 0.00 0.00 0.00 74 1012.4
20260906024553 27 2 1.6 3.2 0.00 0.00 0.00 72 1012.2
20260906023053 27 2 1.6 3.2 0.00 0.00 0.00 70 1011.9
20260906021552 28 23 0.0 0.0 0.00 0.00 0.00 67 1011.6
20260906020059 28 23 0.0 0.0 0.00 0.00 0.00 64 1011.1
20260906014551 29 23 0.0 0.0 0.00 0.00 0.00 64 1011.3
20260906013103 30 45 0.0 0.0 0.00 0.00 0.00 62 1011.0
20260906011550 30 25 0.0 0.0 0.00 0.00 0.00 62 1010.9
20260906010052 30 52 0.0 0.0 0.00 0.00 0.00 61 1010.6
20260906004549 31 70 0.0 0.0 0.00 0.00 0.00 62 1010.8
20260906003049 31 71 0.0 0.0 0.00 0.00 0.00 62 1011.0
20260906001548 32 35 0.0 1.6 0.00 0.00 0.00 58 1010.7
20260906000055 33 104 0.0 4.8 0.00 0.00 0.00 55 1010.7
20260905234554 33 104 0.0 3.2 0.00 0.00 0.00 53 1010.8
20260905233047 34 109 0.0 4.8 0.00 0.00 0.00 52 1010.9
20260905231545 34 119 3.2 6.4 0.00 0.00 0.00 52 1011.0
20260905230046 34 140 1.6 6.4 0.00 0.00 0.00 52 1011.0
20260905224544 34 128 1.6 9.7 0.00 0.00 0.00 51 1010.8
20260905223049 35 125 1.6 9.7 0.00 0.00 0.00 50 1010.8
20260905221541 35 120 1.6 11.3 0.00 0.00 0.00 45 1011.0
20260905220040 35 138 6.4 14.5 0.00 0.00 0.00 47 1011.2
20260905214540 35 350 4.8 14.5 0.00 0.00 0.00 45 1011.2
20260905213038 36 129 8.0 16.1 0.00 0.00 0.00 44 1011.2
20260905211539 36 80 3.2 14.5 0.00 0.00 0.00 45 1011.3
20260905210046 36 180 9.7 17.7 0.00 0.00 0.00 46 1011.6
20260905204535 36 177 11.3 17.7 0.00 0.00 0.00 43 1011.8
20260905203032 36 124 6.4 24.1 0.00 0.00 0.00 43 1011.9
20260905201529 36 155 4.8 19.3 0.00 0.00 0.00 46 1012.2
20260905200028 36 92 3.2 14.5 0.00 0.00 0.00 46 1012.4
20260905194527 36 350 6.4 17.7 0.00 0.00 0.00 47 1012.5
20260905193025 36 3 3.2 19.3 0.00 0.00 0.00 47 1012.4
20260905191525 36 113 9.7 22.5 0.00 0.00 0.00 48 1012.5
20260905190022 35 124 4.8 20.9 0.00 0.00 0.00 47 1012.9
20260905184521 35 179 8.0 19.3 0.00 0.00 0.00 48 1012.8